2024-247V

Last updated on Tue Jan 21 2025 00:02:04 GMT+0000 (Coordinated Universal Time)

1 62396U 24247V 25020.49850849 .00029939 00000+0 13485-2 0 9995 2 62396 44.9960 198.9406 0003567 179.3106 180.7780 15.20602785 4714
UTC large
Height (km)
Speed (km/s)
/
Latitude / Longitude
Inclination (degrees)
Orbital Period (minutes)
Azimuth
Elevation
Range (km)
Doppler Factor

Next 0 passes for location: London (51.5072 / 0.1276)

Sorry there are no passes over London.